EW1479 Weather Reports


time (UTC)temp
F
wind
direction
speed
knots
gust
knots
rain 1hr
in
rain 24hr
in
rain mn
in
humidity
%
barometer
mb
20260504044824 51 220 2.6 6.1 0.00 0.00 0.00 58 1013.7
20260504043318 52 242 2.6 6.1 0.00 0.00 0.00 59 1013.8
20260504041825 52 246 5.2 7.8 0.00 0.00 0.00 58 1013.8
20260504040318 52 217 5.2 7.0 0.00 0.00 0.00 58 1013.8
20260504034810 52 219 3.5 7.0 0.00 0.00 0.00 58 1013.7
20260504033328 52 226 4.3 10.4 0.00 0.00 0.00 59 1013.8
20260504031815 52 226 4.3 7.0 0.00 0.00 0.00 60 1013.8
20260504030311 53 220 3.5 6.1 0.00 0.00 0.00 59 1013.8
20260504024817 53 233 3.5 6.1 0.00 0.00 0.00 58 1013.8
20260504023330 54 231 4.3 11.3 0.00 0.00 0.00 55 1013.9
20260504021822 55 264 5.2 18.2 0.00 0.00 0.00 53 1014.1
20260504020328 55 252 6.1 17.4 0.00 0.00 0.00 54 1013.9
20260504014824 55 278 8.7 15.6 0.00 0.00 0.00 54 1014.2
20260504013312 55 273 5.2 10.4 0.00 0.00 0.00 51 1014.2
20260504011826 55 267 6.1 14.8 0.00 0.00 0.00 52 1013.9
20260504010315 55 263 7.8 16.5 0.00 0.00 0.00 52 1014.1
20260504004825 55 250 10.4 20.9 0.00 0.00 0.00 51 1014.2
20260504003315 55 264 10.4 16.5 0.00 0.00 0.00 51 1014.3
20260504001826 55 273 10.4 23.5 0.00 0.00 0.00 49 1014.4
20260504000311 55 243 6.1 15.6 0.00 0.00 0.00 49 1014.3
20260503234824 54 274 5.2 13.9 0.00 0.00 0.00 49 1014.2
20260503233320 55 289 10.4 17.4 0.00 0.00 0.00 48 1014.2
20260503231810 55 284 14.8 21.7 0.00 0.00 0.00 46 1014.1
20260503230343 56 291 11.3 20.9 0.00 0.00 0.00 47 1014.1
20260503224834 56 275 12.2 23.5 0.00 0.00 0.00 46 1013.9
20260503223322 57 307 9.6 21.7 0.00 0.00 0.00 43 1013.6
20260503221835 57 275 6.1 13.9 0.00 0.00 0.00 44 1013.5
20260503220324 57 275 8.7 15.6 0.00 0.00 0.00 43 1013.6
20260503214836 57 250 6.1 17.4 0.00 0.00 0.00 43 1013.4
20260503213324 57 256 12.2 20.0 0.00 0.00 0.00 40 1013.4
20260503211820 58 270 8.7 20.0 0.00 0.00 0.00 42 1013.3
20260503210354 59 253 8.7 16.5 0.00 0.00 0.00 42 1013.3
20260503204841 58 290 7.8 13.0 0.00 0.00 0.00 44 1013.5
20260503203311 57 293 9.6 19.1 0.00 0.00 0.00 43 1013.6
20260503201843 57 269 4.3 7.0 0.00 0.00 0.00 46 1013.9
20260503200311 55 272 3.5 9.6 0.00 0.00 0.00 48 1014.1
20260503194823 55 250 4.3 7.8 0.00 0.00 0.00 45 1014.4
20260503193313 54 287 5.2 10.4 0.00 0.00 0.00 46 1014.7
20260503191824 54 252 2.6 12.2 0.00 0.00 0.00 49 1014.9
20260503190338 54 260 4.3 8.7 0.00 0.00 0.00 48 1015.1
20260503184824 54 245 6.1 13.9 0.00 0.00 0.00 46 1015.3
20260503183321 53 273 7.8 15.6 0.00 0.00 0.00 44 1015.6
20260503181833 53 257 7.8 13.9 0.00 0.00 0.00 45 1015.8
20260503180320 52 293 6.1 13.9 0.00 0.00 0.00 46 1016.2
20260503174833 52 265 8.7 18.2 0.00 0.00 0.00 47 1016.0
20260503173321 52 287 7.0 13.9 0.00 0.00 0.00 42 1016.3
20260503171834 53 302 3.5 14.8 0.00 0.00 0.00 48 1016.4
20260503170322 52 295 7.0 13.9 0.00 0.00 0.00 45 1016.5
20260503150313 49 262 4.3 11.3 0.00 0.00 0.00 55 1017.5
20260503140313 47 249 2.6 8.7 0.00 0.00 0.00 62 1017.9
20260503130313 44 207 4.3 7.0 0.00 0.00 0.00 73 1018.5
20260503110334 37 250 1.7 4.3 0.00 0.00 0.00 81 1018.3
20260503090325 36 231 1.7 4.3 0.00 0.00 0.00 88 1017.8
20260503080351 36 238 0.9 3.5 0.00 0.00 0.00 87 1018.0
20260503071814 37 258 0.0 2.6 0.00 0.00 0.00 85 1018.0
20260503070311 38 236 0.9 2.6 0.00 0.00 0.00 85 1018.0
20260503060329 39 231 1.7 5.2 0.00 0.00 0.00 82 1018.3
20260503054840 39 205 1.7 6.1 0.00 0.00 0.00 81 1018.3
20260503053334 39 229 2.6 5.2 0.00 0.00 0.00 81 1018.4
20260503051844 39 221 2.6 4.3 0.00 0.00 0.00 80 1018.6
20260503050337 39 242 1.7 2.6 0.00 0.00 0.00 80 1018.7